• Em Portugal
  • Lista de países
  • Para 7 dias
  • Temperatura da água
  • Mapas de satélite
  • Mapa do tempo
  • Widgets de tempo
  • user-avatar
    Iniciar Sessão

    Previsão horária em Ravda

    Hoje, 16 Outubro, Terça-feira

    Tempo Temperatura Precipitação Vento Pressão Humidade
    00:00 +13°C° 0 mm 4 m/s 766 mmHg 85%
    01:00 +13°C° 0 mm 4 m/s 766 mmHg 86%
    02:00 +12°C° 0 mm 4 m/s 766 mmHg 87%
    03:00 +12°C° 0 mm 4 m/s 766 mmHg 87%
    04:00 +12°C° 0 mm 4 m/s 766 mmHg 88%
    05:00 +12°C° 0 mm 4 m/s 766 mmHg 89%
    06:00 +12°C° 0 mm 4 m/s 766 mmHg 85%
    07:00 +13°C° 0 mm 4 m/s 766 mmHg 82%
    08:00 +14°C° 0 mm 4 m/s 766 mmHg 79%
    09:00 +17°C° 0 mm 4 m/s 766 mmHg 71%
    10:00 +19°C° 0 mm 4 m/s 766 mmHg 63%
    11:00 +21°C° 0 mm 4 m/s 766 mmHg 55%
    12:00 +22°C° 0 mm 4 m/s 766 mmHg 53%
    13:00 +23°C° 0 mm 4 m/s 766 mmHg 50%
    14:00 +25°C° 0 mm 4 m/s 766 mmHg 48%
    15:00 +23°C° 0 mm 4 m/s 766 mmHg 52%
    16:00 +22°C° 0 mm 4 m/s 766 mmHg 56%
    17:00 +21°C° 0 mm 3 m/s 765 mmHg 60%
    18:00 +20°C° 0 mm 3 m/s 765 mmHg 65%
    19:00 +18°C° 0 mm 2 m/s 765 mmHg 70%
    20:00 +17°C° 0 mm 2 m/s 766 mmHg 75%
    21:00 +17°C° 0 mm 2 m/s 765 mmHg 74%
    22:00 +16°C° 0 mm 2 m/s 765 mmHg 74%
    23:00 +16°C° 0 mm 2 m/s 765 mmHg 73%

    Amanhã, 17 Outubro, Quarta-feira

    Tempo Temperatura Precipitação Vento Pressão Humidade
    00:00 +16°C° 0 mm 2 m/s 765 mmHg 72%
    01:00 +14°C° 0 mm 3 m/s 765 mmHg 71%
    02:00 +14°C° 0 mm 3 m/s 765 mmHg 69%
    03:00 +14°C° 0 mm 3 m/s 765 mmHg 69%
    04:00 +14°C° 0 mm 3 m/s 765 mmHg 68%
    05:00 +13°C° 0 mm 3 m/s 764 mmHg 68%
    06:00 +14°C° 0 mm 3 m/s 764 mmHg 65%
    07:00 +15°C° 0 mm 4 m/s 765 mmHg 63%
    08:00 +15°C° 0 mm 4 m/s 765 mmHg 61%
    09:00 +18°C° 0 mm 4 m/s 765 mmHg 58%
    10:00 +20°C° 0 mm 4 m/s 764 mmHg 54%
    11:00 +22°C° 0 mm 4 m/s 764 mmHg 50%
    12:00 +23°C° 0 mm 4 m/s 764 mmHg 49%
    13:00 +23°C° 0 mm 4 m/s 764 mmHg 48%
    14:00 +25°C° 0 mm 4 m/s 764 mmHg 47%
    15:00 +23°C° 0 mm 4 m/s 763 mmHg 51%
    16:00 +22°C° 0 mm 4 m/s 763 mmHg 55%
    17:00 +21°C° 0 mm 4 m/s 763 mmHg 59%
    18:00 +20°C° 0 mm 4 m/s 763 mmHg 66%
    19:00 +19°C° 0 mm 4 m/s 763 mmHg 72%
    20:00 +18°C° 0 mm 4 m/s 763 mmHg 79%
    21:00 +17°C° 0 mm 3 m/s 763 mmHg 82%
    22:00 +17°C° 0 mm 3 m/s 763 mmHg 86%
    23:00 +16°C° 0 mm 3 m/s 763 mmHg 89%

    Depois de amanhã, 18 Outubro, Quinta-feira

    Tempo Temperatura Precipitação Vento Pressão Humidade
    00:00 +16°C° 0 mm 3 m/s 763 mmHg 90%
    01:00 +16°C° 0 mm 3 m/s 763 mmHg 91%
    02:00 +14°C° 0 mm 3 m/s 763 mmHg 93%
    03:00 +14°C° 0 mm 3 m/s 763 mmHg 93%
    04:00 +14°C° 0 mm 3 m/s 762 mmHg 93%
    05:00 +13°C° 0 mm 3 m/s 762 mmHg 94%
    06:00 +14°C° 0 mm 3 m/s 762 mmHg 91%
    07:00 +14°C° 0 mm 3 m/s 763 mmHg 89%
    08:00 +16°C° 0 mm 3 m/s 763 mmHg 86%
    09:00 +18°C° 0 mm 3 m/s 763 mmHg 79%
    10:00 +19°C° 0 mm 3 m/s 763 mmHg 71%
    11:00 +21°C° 0 mm 3 m/s 762 mmHg 64%
    12:00 +22°C° 0 mm 3 m/s 762 mmHg 61%
    13:00 +22°C° 0 mm 3 m/s 762 mmHg 57%
    14:00 +23°C° 0 mm 4 m/s 762 mmHg 54%
    15:00 +22°C° 0.1 mm 4 m/s 762 mmHg 59%
    16:00 +22°C° 0.1 mm 3 m/s 761 mmHg 64%
    17:00 +21°C° 0.1 mm 3 m/s 761 mmHg 68%
    18:00 +20°C° 0.2 mm 3 m/s 762 mmHg 74%
    19:00 +18°C° 0.2 mm 3 m/s 762 mmHg 81%
    20:00 +17°C° 0.2 mm 2 m/s 762 mmHg 87%
    21:00 +17°C° 0.1 mm 2 m/s 762 mmHg 88%
    22:00 +17°C° 0.1 mm 2 m/s 762 mmHg 89%
    23:00 +16°C° 0.1 mm 2 m/s 762 mmHg 90%

    19 Outubro, Sexta-feira

    Tempo Temperatura Precipitação Vento Pressão Humidade
    00:00 +16°C° 0.1 mm 2 m/s 762 mmHg 90%
    01:00 +16°C° 0.1 mm 2 m/s 762 mmHg 90%
    02:00 +16°C° 0.1 mm 2 m/s 762 mmHg 91%
    03:00 +15°C° 0 mm 2 m/s 762 mmHg 91%
    04:00 +15°C° 0 mm 2 m/s 762 mmHg 91%
    05:00 +15°C° 0 mm 2 m/s 762 mmHg 91%
    06:00 +16°C° 0 mm 2 m/s 762 mmHg 87%
    07:00 +16°C° 0 mm 2 m/s 763 mmHg 84%
    08:00 +17°C° 0 mm 2 m/s 763 mmHg 80%
    09:00 +19°C° 0 mm 2 m/s 763 mmHg 71%
    10:00 +21°C° 0 mm 2 m/s 763 mmHg 63%
    11:00 +24°C° 0 mm 2 m/s 763 mmHg 54%
    12:00 +24°C° 0 mm 2 m/s 762 mmHg 51%
    13:00 +25°C° 0 mm 2 m/s 762 mmHg 48%
    14:00 +26°C° 0 mm 2 m/s 762 mmHg 44%
    15:00 +25°C° 0 mm 2 m/s 762 mmHg 48%
    16:00 +24°C° 0 mm 2 m/s 762 mmHg 52%
    17:00 +23°C° 0 mm 2 m/s 762 mmHg 56%
    18:00 +22°C° 0 mm 1 m/s 762 mmHg 61%
    19:00 +21°C° 0 mm 1 m/s 762 mmHg 66%
    20:00 +19°C° 0 mm 1 m/s 763 mmHg 71%
    21:00 +19°C° 0 mm 1 m/s 763 mmHg 71%
    22:00 +19°C° 0 mm 1 m/s 763 mmHg 72%
    23:00 +18°C° 0 mm 1 m/s 763 mmHg 72%

    20 Outubro, Sábado

    Tempo Temperatura Precipitação Vento Pressão Humidade
    00:00 +18°C° 0 mm 1 m/s 763 mmHg 72%
    01:00 +18°C° 0 mm 1 m/s 763 mmHg 72%
    02:00 +17°C° 0 mm 2 m/s 762 mmHg 72%
    03:00 +16°C° 0 mm 2 m/s 762 mmHg 73%
    04:00 +16°C° 0 mm 2 m/s 763 mmHg 73%
    05:00 +16°C° 0 mm 2 m/s 763 mmHg 74%
    06:00 +17°C° 0 mm 2 m/s 763 mmHg 71%
    07:00 +17°C° 0 mm 2 m/s 763 mmHg 69%
    08:00 +18°C° 0 mm 2 m/s 763 mmHg 66%
    09:00 +20°C° 0 mm 2 m/s 763 mmHg 59%
    10:00 +21°C° 0 mm 2 m/s 763 mmHg 52%
    11:00 +24°C° 0 mm 2 m/s 763 mmHg 45%
    12:00 +25°C° 0 mm 2 m/s 763 mmHg 43%
    13:00 +25°C° 0 mm 2 m/s 763 mmHg 41%
    14:00 +26°C° 0 mm 2 m/s 762 mmHg 39%
    15:00 +25°C° 0 mm 2 m/s 762 mmHg 42%
    16:00 +24°C° 0 mm 2 m/s 762 mmHg 44%
    17:00 +23°C° 0 mm 2 m/s 762 mmHg 47%
    18:00 +21°C° 0 mm 2 m/s 762 mmHg 51%
    19:00 +21°C° 0 mm 1 m/s 762 mmHg 54%
    20:00 +19°C° 0 mm 1 m/s 763 mmHg 58%
    21:00 +19°C° 0 mm 1 m/s 763 mmHg 59%
    22:00 +18°C° 0 mm 1 m/s 763 mmHg 60%
    23:00 +16°C° 0 mm 0 m/s 763 mmHg 62%

    21 Outubro, Domingo

    Tempo Temperatura Precipitação Vento Pressão Humidade
    00:00 +16°C° 0 mm 0 m/s 763 mmHg 63%
    01:00 +15°C° 0 mm 0 m/s 763 mmHg 64%
    02:00 +16°C° 0 mm 1 m/s 763 mmHg 66%
    03:00 +16°C° 0 mm 1 m/s 763 mmHg 65%
    04:00 +16°C° 0 mm 1 m/s 763 mmHg 65%
    05:00 +16°C° 0 mm 2 m/s 763 mmHg 65%
    06:00 +16°C° 0 mm 1 m/s 763 mmHg 63%
    07:00 +16°C° 0 mm 1 m/s 763 mmHg 61%
    08:00 +18°C° 0 mm 1 m/s 763 mmHg 60%
    09:00 +19°C° 0 mm 1 m/s 763 mmHg 55%
    10:00 +21°C° 0 mm 1 m/s 763 mmHg 51%
    11:00 +22°C° 0 mm 1 m/s 762 mmHg 47%
    12:00 +23°C° 0 mm 1 m/s 762 mmHg 45%
    13:00 +23°C° 0 mm 2 m/s 762 mmHg 43%
    14:00 +24°C° 0 mm 2 m/s 761 mmHg 41%
    15:00 +23°C° 0 mm 2 m/s 761 mmHg 45%
    16:00 +21°C° 0 mm 2 m/s 761 mmHg 49%
    17:00 +20°C° 0 mm 2 m/s 761 mmHg 53%
    18:00 +19°C° 0.1 mm 2 m/s 761 mmHg 57%
    19:00 +18°C° 0.1 mm 2 m/s 761 mmHg 61%
    20:00 +17°C° 0.1 mm 2 m/s 761 mmHg 64%
    21:00 +17°C° 0.2 mm 2 m/s 761 mmHg 62%
    22:00 +16°C° 0.2 mm 3 m/s 761 mmHg 60%
    23:00 +16°C° 0.2 mm 3 m/s 761 mmHg 58%
    Mostrar mais